www.pogodaiklimat.ru

Погода и климат >> Архив погоды >> Австралия >> Западная Австралия >> Леонора


ПОГОДА в Леоноре

  • Прогноз погоды в Леоноре
  • Монитор погоды в Леоноре

АРХИВ ПОГОДЫ в Леоноре

Время (UTC), дата Ветер
(напр.,м/с)
 
Видим.   Явления Облачность Т
(С)
Тd
(С)
f
(%)
Тe
(С)
Тes
(С)
Комфортность P
(гПа)
Po
(гПа)
Тmin
(С)
Tmax
(С)
R
(мм)
R24
(мм)
S
(см)
10 12.02 Ю 4 н/о н/о +32.6 +6.0 19 +31 +31 жарко 1009.8 968.6
12 12.02 ЮВ 4 н/о н/о +29.6 +6.3 23 +28 +28 жарко 1011.5 970.2
13 12.02 ЮВ 5 н/о н/о +28.9 +5.7 23 +28 +28 жарко 1012.3 971.0 +34.2
15 12.02 ЮВ 6 н/о н/о +26.3 +2.9 22 +25 +25 комфорт 1012.5 971.2
16 12.02 ЮВ 5 н/о н/о +25.2 +3.2 24 +24 +24 комфорт 1012.3 971.0
18 12.02 ЮВ 4 н/о н/о +23.1 +3.1 27 +23 +23 комфорт 1012.0 970.7
19 12.02 В 4 н/о н/о +22.3 +3.4 29 +22 +22 комфорт 1012.2 970.9
21 12.02 В 6 н/о н/о +21.0 +3.7 32 +21 +21 комфорт 1013.4 972.0
22 12.02 В 6 н/о н/о +19.9 +7.6 45 +20 +20 1014.4 973.0
00 13.02 В 6 н/о н/о +21.8 +8.3 42 +23 +23 комфорт 1015.5 974.1
01 13.02 В 6 н/о н/о +23.6 +7.7 36 +24 +24 комфорт 1015.6 974.2 +19.9
03 13.02 В 5 н/о н/о +27.6 +6.9 27 +27 +27 жарко 1015.1 973.7
04 13.02 В 4 н/о 1/0
[]
+30.0 +6.6 23 +29 +42 жарко 1014.0 972.6
06 13.02 В 3 н/о н/о +32.2 +5.7 19 +30 +30 жарко 1012.1 970.8
07 13.02 ЮВ 4 н/о н/о +33.5 +4.2 16 +31 +31 жарко 1011.4 970.1
09 13.02 В 3 н/о н/о +34.6 +2.2 13 +31 +31 жарко 1010.5 969.3
10 13.02 В 4 н/о н/о +33.6 +3.4 15 +31 +31 жарко 1011.0 969.7
12 13.02 ЮВ 4 н/о н/о +31.0 +4.7 19 +29 +29 жарко 1011.9 970.6
13 13.02 ЮВ 5 н/о н/о +29.8 +5.1 21 +28 +28 жарко 1011.9 970.6 +35.1
15 13.02 В 4 н/о н/о +27.9 +4.2 22 +26 +26 жарко 1011.6 970.3
16 13.02 В 4 н/о н/о +27.6 +2.6 20 +26 +26 жарко 1011.2 969.9
18 13.02 В 5 н/о н/о +26.3 +2.3 21 +25 +25 комфорт 1010.7 969.5
19 13.02 В 4 н/о 9/0
[]
+25.6 +2.3 22 +24 +24 комфорт 1010.4 969.2
21 13.02 В 4 н/о н/о +24.6 +2.7 24 +24 +24 комфорт 1011.6 970.3
22 13.02 В 4 н/о 10/0
[]
+24.6 +3.3 25 +24 +24 комфорт 1012.3 971.0
00 14.02 СВ 7 н/о н/о +27.8 +2.8 20 +26 +26 жарко 1013.0 971.7
01 14.02 СВ 4 н/о 5/0
[]
+29.1 +2.4 18 +27 +33 жарко 1013.6 972.2 +21.7
03 14.02 СВ 5 н/о н/о +33.9 +1.6 13 +31 +31 жарко 1012.3 971.0
04 14.02 В 7 н/о н/о +35.7 +0.7 11 +32 +32 жарко 1010.6 969.4
06 14.02 СВ 6 н/о н/о +37.7 -0.6 9 +34 +34 очень
жарко
1009.0 967.8
07 14.02 СВ 6 н/о 3/0
[]
+37.0 -1.1 9 +33 +37 жарко 1008.3 967.2
09 14.02 СВ 6 н/о н/о +37.8 -0.5 9 +34 +34 очень
жарко
1007.4 966.3
10 14.02 ЮЗ 11 н/о 10/0
[]
+35.4 +3.9 14 +32 +32 жарко 1009.2 968.0
12 14.02 ЮВ 3 н/о н/о +34.5 +3.1 14 +32 +32 жарко 1009.9 968.7
13 14.02 СВ 5 н/о 10/10 1500 м
[]
+34.7 -0.1 11 +31 +31 жарко 1011.5 970.2 +38.9
15 14.02 В 4 н/о н/о +31.7 +5.3 19 +30 +30 жарко 1010.8 969.6
16 14.02 С 5 н/о 10/0
[]
+31.1 +5.5 20 +29 +29 жарко 1010.8 969.6
18 14.02 В 4 н/о н/о +29.8 +7.1 24 +29 +29 жарко 1011.2 969.9
19 14.02 В 4 н/о 1/0
[]
+29.1 +3.1 19 +27 +27 жарко 1011.1 969.8
21 14.02 СВ 5 н/о н/о +27.1 +6.5 27 +26 +26 жарко 1011.3 970.0
22 14.02 СВ 6 н/о {туман} н/о +28.2 +2.4 19 +26 +26 жарко 1011.6 970.3
00 15.02 СВ 7 н/о н/о +32.1 -0.9 12 +29 +29 жарко 1012.8 971.5
01 15.02 С 7 н/о {туман} 1/0
[]
+35.0 -2.6 9 +31 +34 жарко 1012.9 971.6 +26.1
03 15.02 СЗ 5 н/о н/о +38.9 +3.1 11 +36 +36 очень
жарко
1011.9 970.6
04 15.02 СЗ 6 н/о {туман} н/о +39.8 +2.5 10 +36 +36 очень
жарко
1011.1 969.8
06 15.02 С 5 н/о н/о +40.1 +1.2 9 +36 +36 очень
жарко
1009.5 968.3
07 15.02 З 7 н/о {туман} н/о +41.3 +0.5 8 +38 +38 очень
жарко
1008.9 967.7
09 15.02 З 8 н/о н/о +40.9 +0.2 8 +37 +37 очень
жарко
1008.8 967.6
10 15.02 З 4 н/о 1/0
[]
+39.9 -0.5 8 +36 +36 очень
жарко
1009.0 967.8
12 15.02 ЮЗ 3 н/о н/о +34.7 -2.8 9 +31 +31 жарко 1010.6 969.4
13 15.02 Ю 2 н/о н/о +31.7 -0.1 13 +29 +29 жарко 1011.2 969.9 +43.2
15 15.02 ЮЗ 1 н/о н/о +28.0 +0.7 17 +26 +26 жарко 1011.1 969.8
16 15.02 ЮЗ 2 н/о н/о +28.0 +0.7 17 +26 +26 жарко 1011.0 969.7
18 15.02 З 2 н/о н/о +25.4 +0.8 20 +24 +24 комфорт 1010.4 969.2
19 15.02 СЗ 1 н/о н/о +24.9 +1.1 21 +24 +24 комфорт 1010.3 969.1
21 15.02 С 3 н/о н/о +22.7 +2.2 26 +22 +22 комфорт 1011.0 969.7
22 15.02 З 3 н/о н/о +22.9 +1.9 25 +22 +22 комфорт 1011.6 970.3
00 16.02 Ю 2 н/о н/о +28.6 +4.2 21 +27 +27 жарко 1012.3 971.0
01 16.02 Ю 1 н/о н/о +31.2 +3.3 17 +29 +29 жарко 1012.4 971.1 +21.7
03 16.02 В 3 н/о н/о +37.9 +1.0 10 +34 +34 очень
жарко
1011.4 970.1
04 16.02 ЮЗ 2 н/о н/о +39.7 -0.7 8 +36 +36 очень
жарко
1010.3 969.1
06 16.02 З 5 н/о н/о +40.6 -3.9 6 +36 +36 очень
жарко
1008.7 967.5
07 16.02 З 4 н/о н/о +40.8 -3.8 6 +37 +37 очень
жарко
1007.9 966.8
09 16.02 З 3 н/о н/о +40.7 -3.9 6 +37 +37 очень
жарко
1007.1 966.0
10 16.02 Ю 4 н/о н/о +39.8 -2.4 7 +36 +36 очень
жарко
1007.3 966.2
12 16.02 ЮВ 4 н/о н/о +35.8 +0.8 11 +32 +32 жарко 1008.7 967.5
13 16.02 ЮВ 6 н/о н/о +33.4 +7.4 20 +32 +32 жарко 1009.9 968.7 +41.7
15 16.02 ЮВ 5 н/о н/о +30.9 +8.6 25 +30 +30 жарко 1010.1 968.9
16 16.02 ЮВ 5 н/о н/о +30.0 +8.4 26 +29 +29 жарко 1010.2 969.0
18 16.02 ЮВ 7 н/о н/о +26.7 +9.1 33 +27 +27 жарко 1010.3 969.1
19 16.02 ЮВ 8 н/о н/о +25.0 +9.3 37 +26 +26 жарко 1011.0 969.7
21 16.02 ЮВ 7 н/о н/о +22.3 +10.5 47 +24 +24 комфорт 1011.8 970.5
22 16.02 ЮВ 6 н/о н/о +21.4 +9.6 47 +23 +23 комфорт 1012.6 971.3
00 17.02 ЮВ 6 н/о н/о +22.5 +7.5 38 +23 +23 комфорт 1013.6 972.2
01 17.02 ЮВ 7 н/о н/о +23.7 +8.2 37 +24 +24 комфорт 1013.5 972.1 +21.2
03 17.02 ЮВ 6 н/о н/о +26.0 +7.6 31 +26 +26 жарко 1012.3 971.0
04 17.02 ЮВ 6 н/о 1/0
[]
+28.5 +8.2 28 +28 +36 жарко 1011.4 970.1
06 17.02 ЮВ 5 н/о н/о +30.7 +7.8 24 +30 +30 жарко 1009.5 968.3
07 17.02 ЮВ 6 н/о н/о +32.5 +7.4 21 +31 +31 жарко 1008.8 967.6
09 17.02 ЮВ 6 н/о н/о +33.0 +7.1 20 +31 +31 жарко 1008.0 966.9
10 17.02 ЮВ 6 н/о н/о +32.5 +7.4 21 +31 +31 жарко 1008.1 967.0
12 17.02 ЮВ 5 н/о н/о +30.2 +8.0 25 +29 +29 жарко 1009.9 968.7
13 17.02 ЮВ 5 н/о н/о +29.6 +8.1 26 +29 +29 жарко 1010.1 968.9 +36.0
15 17.02 В 8 н/о н/о +26.7 +10.0 35 +27 +27 жарко 1010.3 969.1
16 17.02 В 7 н/о н/о +25.6 +9.4 36 +26 +26 жарко 1010.3 969.1
18 17.02 В 6 н/о н/о +23.7 +9.3 40 +25 +25 комфорт 1010.4 969.2
19 17.02 В 6 н/о н/о +22.6 +9.0 42 +24 +24 комфорт 1010.6 969.4
21 17.02 В 5 н/о н/о +20.5 +8.5 46 +22 +22 комфорт 1011.5 970.2
22 17.02 В 5 н/о н/о +19.8 +8.5 48 +21 +21 комфорт 1012.1 970.8
00 18.02 В 7 н/о н/о +21.5 +8.7 44 +23 +23 комфорт 1013.5 972.1
01 18.02 В 8 н/о н/о +23.1 +7.6 37 +24 +24 комфорт 1013.6 972.2 +19.9
03 18.02 В 6 н/о н/о +27.2 +6.6 27 +27 +27 жарко 1012.6 971.3
04 18.02 В 5 н/о н/о +29.6 +6.3 23 +28 +28 жарко 1011.8 970.5
06 18.02 Ю 5 н/о н/о +32.9 +6.2 19 +31 +31 жарко 1010.2 969.0
07 18.02 В 5 н/о н/о +32.8 +5.4 18 +31 +31 жарко 1009.5 968.3
09 18.02 ЮВ 5 н/о н/о +33.3 +5.0 17 +31 +31 жарко 1009.1 967.9
10 18.02 ЮВ 5 н/о н/о +32.5 +4.3 17 +30 +30 жарко 1009.4 968.2
12 18.02 ЮВ 5 н/о н/о +29.9 +4.5 20 +28 +28 жарко 1011.2 969.9
13 18.02 ЮВ 5 н/о н/о +29.3 +4.0 20 +27 +27 жарко 1011.8 970.5 +34.4
15 18.02 В 6 н/о н/о +26.9 +4.0 23 +26 +26 жарко 1011.5 970.2
16 18.02 В 6 н/о н/о +26.2 +4.1 24 +25 +25 комфорт 1011.2 969.9
18 18.02 В 5 н/о н/о +25.1 +4.3 26 +24 +24 комфорт 1010.3 969.1
19 18.02 В 4 н/о н/о +24.2 +4.6 28 +24 +24 комфорт 1010.3 969.1
21 18.02 В 4 н/о н/о +22.8 +4.8 31 +23 +23 комфорт 1010.8 969.6
22 18.02 В 3 н/о н/о +22.7 +4.7 31 +23 +23 комфорт 1011.5 970.2
00 19.02 В 6 н/о н/о +25.9 +5.5 27 +25 +25 комфорт 1012.4 971.1
01 19.02 В 6 н/о н/о +28.0 +5.6 24 +27 +27 жарко 1012.7 971.4 +21.4
03 19.02 В 5 н/о н/о +32.5 +5.1 18 +30 +30 жарко 1011.8 970.5
04 19.02 В 5 н/о н/о +33.6 +4.3 16 +31 +31 жарко 1011.0 969.7
06 19.02 В 5 н/о н/о +36.3 +3.5 13 +33 +33 жарко 1009.4 968.2
07 19.02 В 5 н/о н/о +37.4 +3.2 12 +34 +34 очень
жарко
1008.6 967.4

 

Местоположение метеостанции Леонора (Западная Австралия, Австралия): широта -28.88 долгота 121.32 высота над уровнем моря 370 м.

В архиве по умолчанию представлена погода в Леоноре за последнюю неделю. Архивные данные за месяц целиком и за предыдущие месяцы, начиная с января 2011 года, Вы можете получить, выбрав интересующий диапазон дат из раскрывающегося списка и нажав кнопку "Ввод!".


*Определитесь, кто Вы:
робот инопланетянин человек

Внимание! Время в таблицах - всемирное. Для получения местного времени необходимо прибавить поправку, которая равна 8 ч.

Смотрите также архив погоды в соседних городах и на ближайших метеорологических станциях:

Погода в Лавертоне (Западная Австралия, Австралия) (110 км)
Погода в Леинстере (Западная Австралия, Австралия) (130 км)
Погода в Калгурли-Боулдере (Западная Австралия, Австралия) (212 км)
Погода в Саутерн Кросс (Западная Австралия, Австралия) (323 км)
Погода в Маунт Магнет (Западная Австралия, Австралия) (352 км)
Погода в Микатарре (Западная Австралия, Австралия) (372 км)
Погода в Норсмане (Западная Австралия, Австралия) (374 км)
Погода в Салмон Гамс (Западная Австралия, Австралия) (457 км)
Погода в Дауоллину (Западная Австралия, Австралия) (476 км)
Погода в Кандердине (Западная Австралия, Австралия) (498 км)

Пояснения к столбцам:

Ветер - указаны скорость ветра в м/с - средняя за 10 мин, порывы в срок и между сроками (в фигурных скобках) и направление, откуда дует ветер: С - северный, СВ - северо-восточный, В - восточный, ЮВ - юго-восточный, Ю - южный, ЮЗ - юго-западный, З - западный, СЗ - северо-западный.
Видимость - горизонтальная дальность видимости в метрах или километрах. При видимости от 1 до 10 км при отсутствии осадков обычно наблюдается дымка, при ухудшении видимости до 1 км и менее - туман. В сухую погоду видимость может ухудшаться дымом, пылью или мглою.
Явления - указаны атмосферные явления, наблюдавшиеся в срок или в последний час перед сроком; фигурными скобками обозначены явления, наблюдавшиеся между сроками (за 1-3 часа до срока); квадратными скобками обозначены град или гололедные отложения с указанием их диаметра в мм.
Облачность - указаны через наклонную черту общая и нижняя облачность в баллах и высота нижней границы облаков в метрах; квадратными скобками обозначены формы облаков: Ci - перистые, Cs - перисто-слоистые, Cc - перисто-кучевые, Ac - высококучевые, As - высокослоистые, Sc - слоисто-кучевые, Ns - слоисто-дождевые, Cu - кучевые, Cb - кучево-дождевые. Подробнее классификацию облаков см. в Атласе облаков (PDF).
T - Температура воздуха - температура, измеренная на высоте 2 м над землей.
Td - Температура точки росы - температура, при понижении до которой содержащийся в воздухе водяной пар достигнет насыщения.
f - Относительная влажность воздуха - влажноcть воздуха, измеренная на высоте 2 м над землей.
Te - Эффективная температура - температура, которую ощущает одетый по сезону человек в тени. Характеристика душности погоды. При расчете учитывается влияние влажности воздуха и скорости ветра на теплоощущения человека.
Tes - Эффективная температура на солнце - температура, которую ощущает человек, с поправкой на солнечный нагрев. Характеристика знойности погоды. Зависит от высоты солнца над горизонтом, облачности и скорости ветра. Ночью, в пасмурную погоду, а также при ветре 12 м/с и более поправка равна нулю.
P - Атмосферное давление - приведенное к уровню моря атмосферное давление.
Po - Атмосферное давление - измеренное на уровне метеостанции атмосферное давление.
Tmin - Минимальная температура - минимум температуры воздуха на высоте 2 м над землей.
Tmax - Максимальная температура - максимум температуры воздуха на высоте 2 м над землей.
R - Количество осадков - Количество выпавших осадков за период времени, мм. При наведении курсора мыши на число - период времени, за который выпало указанное количество осадков.
R24 - Количество осадков - Количество выпавших осадков за 24 часа, мм.
S - Снежный покров - Высота снежного покрова, см. При наведении курсора мыши на число - состояние снежного покрова и степень покрытия местности в баллах.